Temperature
23 22 22 22 22 22 23 24 25 24 25 24 24 24 23 22 21 18 17 18 18 17 17 17 17 17 17 17 17 17 17 17 17 17 17 17 17 17 17 17 17 18 18 18 18 18 18 18 18
22 22 22 23 22 23 23 24 24 24 24 24 24 24 23 21 20 18 17 18 17 17 17 17 17 17 17 17 17 17 17 17 17 17 17 17 17 17 17 17 17 17 17 17 17 17 18 18 18
22 22 23 23 23 23 23 24 24 25 24 24 24 23 22 21 19 18 17 18 17 17 17 17 17 17 17 17 17 17 17 17 17 17 17 17 17 17 17 17 17 17 17 17 17 17 17 17 17
22 23 24 24 23 24 24 24 25 25 25 24 24 22 20 20 19 18 18 18 17 17 17 17 17 17 17 17 17 17 17 17 17 17 17 17 17 17 17 17 17 17 17 17 17 17 17 17 17
23 24 24 24 24 25 25 25 25 25 25 24 24 22 20 19 19 18 18 18 17 17 17 17 17 17 17 17 17 17 17 17 17 17 17 17 17 17 17 17 17 17 17 17 17 17 17 17 17
24 24 23 23 24 25 26 25 25 25 25 24 23 22 19 18 18 18 18 18 17 17 17 17 17 17 17 17 17 17 17 17 17 17 17 17 17 17 17 17 17 17 17 17 17 17 17 17 17
24 23 24 24 23 24 25 25 25 24 24 24 24 22 19 19 18 18 18 18 17 17 17 17 17 17 17 17 17 17 17 17 17 17 17 17 16 17 17 17 17 17 17 17 17 17 17 17 17
24 24 24 24 24 24 25 25 25 24 24 24 23 22 20 19 18 18 18 18 18 17 17 17 17 17 17 17 17 16 16 16 16 16 16 16 16 16 16 16 16 17 17 17 17 17 17 17 17
25 24 23 24 24 24 25 25 24 24 24 23 23 22 20 19 19 19 18 18 18 18 17 17 17 17 16 16 16 16 16 16 16 16 16 16 16 16 16 16 16 16 16 17 17 17 16 16 16
25 23 24 25 25 25 25 25 25 24 24 23 22 21 20 19 19 19 19 18 18 18 18 17 17 17 16 16 16 16 16 16 16 16 16 16 16 16 16 16 16 16 16 16 16 16 16 16 16
25 24 25 26 26 25 25 25 25 24 23 23 22 21 20 20 20 19 19 19 18 18 18 17 17 17 16 16 16 16 16 16 16 16 16 16 16 15 15 16 16 16 15 16 16 16 16 16 16
25 25 25 25 25 25 25 25 25 24 24 23 22 21 20 20 20 20 20 19 19 18 18 17 17 17 17 16 16 16 16 16 16 16 15 16 15 15 15 15 15 15 15 15 15 15 15 16 16
25 25 25 25 25 25 25 25 24 24 23 23 22 21 21 21 20 20 20 19 19 18 18 18 17 17 17 16 16 16 16 16 16 16 16 16 15 15 15 15 15 15 15 15 15 15 15 15 15
25 25 25 25 25 25 25 24 24 24 23 23 22 22 21 21 21 20 20 20 19 18 18 18 17 17 17 17 16 16 16 16 16 15 15 15 15 15 15 15 15 15 15 15 15 15 15 15 15
25 25 24 25 25 25 24 24 24 24 23 23 22 22 21 21 21 20 20 20 19 19 18 18 17 17 17 17 16 16 16 16 16 15 15 15 15 15 15 15 15 15 15 15 15 15 15 15 15
25 24 23 24 25 25 24 23 24 23 23 23 23 22 22 21 21 21 20 20 19 19 18 18 17 17 17 16 16 16 16 16 15 15 15 15 15 15 15 15 15 14 14 15 14 14 14 14 14
24 23 24 24 25 25 24 23 24 23 23 23 23 22 22 21 21 21 20 20 19 19 18 18 17 17 17 16 16 16 16 15 15 15 15 15 15 15 15 15 14 14 14 14 14 14 14 14 14
24 24 24 24 25 25 24 24 24 23 23 23 23 23 22 21 21 20 20 19 19 19 18 18 17 17 17 16 16 16 16 15 15 15 15 15 15 15 14 14 14 14 14 14 14 14 14 14 14
25 25 24 25 25 25 24 24 24 24 23 23 23 23 22 22 21 21 20 19 19 19 18 18 17 17 17 16 16 16 15 15 15 15 15 15 15 14 14 14 14 14 14 14 14 13 13 13 13
25 24 24 25 25 25 24 24 24 24 23 23 23 22 22 22 21 20 20 19 19 18 18 18 17 17 17 16 16 16 15 15 15 15 15 14 14 14 14 14 14 14 13 13 13 13 13 13 13
24 24 24 24 25 25 24 23 23 24 24 23 23 22 22 22 21 20 20 19 19 18 18 18 17 17 17 16 16 15 15 15 15 15 14 14 14 14 14 14 14 13 13 13 13 13 13 13 13
24 25 24 24 23 23 24 22 23 23 23 23 22 22 22 22 21 20 20 19 18 18 18 17 17 17 16 16 16 16 15 15 15 14 14 14 14 14 14 14 14 13 13 13 13 13 12 12 12
24 25 24 24 23 23 23 23 23 23 22 22 22 22 22 22 21 20 20 19 18 18 17 17 17 16 16 16 16 15 15 15 15 14 14 14 14 14 13 13 13 13 13 13 12 12 12 12 12
24 24 24 24 23 21 23 23 22 23 23 23 23 22 22 21 21 20 19 19 18 18 17 17 17 16 16 16 15 15 15 15 14 14 14 14 14 13 13 13 13 13 13 12 12 12 12 12 12
24 22 21 21 21 22 24 23 22 23 24 23 23 22 22 21 21 20 19 18 18 17 17 17 16 16 16 16 15 15 15 15 14 14 14 14 13 13 13 13 13 13 12 12 12 12 12 12 12
23 23 21 21 21 22 24 23 23 24 23 23 22 22 21 21 20 20 19 18 17 17 17 16 16 16 16 16 15 15 15 15 14 14 14 14 13 13 13 13 13 12 12 12 12 12 12 11 11
23 23 23 22 22 22 23 23 23 23 23 22 22 22 21 20 20 19 19 18 17 17 16 16 16 16 15 15 15 15 15 14 14 14 14 14 13 13 13 13 12 12 12 12 12 11 11 11 11
23 23 22 22 21 21 22 22 21 21 22 22 22 21 21 20 19 19 18 18 17 17 16 16 16 15 15 15 15 15 15 14 14 14 14 13 13 13 13 12 12 12 12 12 11 11 11 11 11
23 22 22 22 22 21 21 21 23 22 22 22 21 21 20 20 19 18 18 17 17 16 16 16 15 15 15 15 15 15 14 14 14 14 14 13 13 13 12 12 12 12 12 11 11 11 11 11 11
23 22 22 20 20 21 20 20 23 22 22 21 21 21 20 19 19 18 18 17 17 16 16 16 15 15 15 15 15 14 14 14 14 14 13 13 13 13 12 12 12 12 11 11 11 11 11 11 11
Wind_Speed
10 11 8 3 2 1 5 6 7 7 7 9 9 9 11 12 8 8 4 4 7 10 11 12 11 12 11 12 12 13 13 13 13 13 13 13 13 13 13 13 12 13 12 12 12 11 11 10 10
10 7 5 3 2 2 5 6 9 9 8 6 7 10 11 10 10 8 5 4 8 11 12 12 11 11 11 11 12 13 13 13 13 13 13 13 13 13 12 12 12 12 12 11 11 10 9 9 8
11 8 4 2 2 4 5 7 8 8 6 5 6 9 8 6 8 6 5 5 10 11 13 12 11 11 11 12 13 13 13 13 13 13 13 13 12 12 12 12 11 11 11 11 10 9 9 8 7
6 3 3 0 4 6 6 7 6 5 5 5 7 8 7 8 6 8 7 8 11 11 13 12 11 11 11 12 12 13 13 13 13 12 12 12 12 12 12 11 11 11 11 11 10 10 10 9 8
4 3 2 1 4 6 6 6 5 5 5 6 8 9 8 10 11 10 7 9 10 10 11 12 11 11 11 12 12 12 12 12 12 11 11 11 11 11 11 11 11 11 10 10 10 10 10 10 9
3 3 1 2 6 6 5 5 5 6 6 6 8 10 7 9 9 8 8 8 9 10 11 12 12 11 12 12 12 11 11 11 10 10 10 10 10 10 10 10 10 10 10 10 9 9 9 9 9
3 3 1 2 5 4 4 4 5 5 5 4 5 8 8 9 7 8 9 8 8 9 9 10 11 11 11 11 11 11 10 9 8 8 8 8 8 9 10 10 9 10 10 9 9 9 9 8 7
3 2 1 1 3 4 5 4 4 4 5 4 4 6 8 10 8 8 8 8 7 7 8 8 10 10 10 10 10 9 9 7 6 6 5 5 7 8 9 9 8 8 8 8 8 8 7 6 6
4 2 1 1 3 4 5 4 4 4 6 6 7 10 12 13 11 9 8 7 6 6 6 6 7 8 9 9 9 8 7 6 5 3 3 3 4 6 7 8 8 7 7 7 6 5 5 4 4
2 1 1 1 3 5 5 4 5 4 6 7 10 12 14 12 10 9 8 8 7 6 6 5 6 6 7 7 7 5 5 4 3 3 4 4 5 6 6 7 6 6 6 5 4 3 2 2 3
2 1 0 2 4 4 4 4 4 4 5 7 10 13 12 11 9 8 8 8 8 7 6 6 5 5 5 4 4 4 4 3 4 4 5 6 5 5 6 5 4 4 4 3 2 2 2 3 4
2 1 0 1 2 2 2 3 3 2 4 7 9 12 11 10 9 7 7 8 8 7 6 6 5 5 5 5 3 3 3 2 3 3 5 5 3 3 3 3 2 3 2 2 2 2 4 4 5
2 1 1 1 1 2 2 2 2 4 5 6 9 10 10 9 8 7 7 8 8 8 7 6 5 6 5 4 2 4 2 2 4 3 3 5 3 2 2 2 3 3 2 2 2 3 4 4 5
1 2 3 3 3 4 4 3 4 5 7 7 8 9 9 9 8 7 8 8 8 8 7 6 5 6 5 4 3 3 3 3 4 2 3 5 4 3 2 3 3 2 3 3 3 4 4 4 4
4 4 5 5 6 4 4 5 6 7 8 8 8 8 9 8 8 7 7 8 8 8 8 7 5 6 5 4 3 3 3 4 3 3 4 5 4 4 3 2 2 2 4 5 4 4 4 3 4
7 7 6 6 7 6 5 5 6 8 9 9 8 9 9 8 8 7 7 7 7 7 8 7 5 6 5 4 4 3 4 4 3 4 4 5 6 6 5 3 2 3 4 3 3 3 3 3 3
8 8 7 6 7 6 6 5 6 8 8 9 9 10 10 9 9 8 7 7 7 7 8 7 5 5 5 5 4 3 3 3 3 4 4 5 6 6 4 2 2 4 3 2 3 3 3 3 3
5 5 6 5 7 7 7 6 7 9 8 7 7 8 10 11 10 9 8 7 7 6 8 7 6 5 5 4 4 3 3 2 3 3 4 5 5 6 4 2 3 4 3 3 3 3 2 2 1
7 7 6 3 4 6 7 7 7 9 8 7 7 7 9 10 10 9 9 8 7 6 7 7 7 6 5 3 3 3 2 2 2 2 4 4 4 4 3 2 3 3 3 2 3 2 2 2 1
8 9 7 4 4 5 7 8 6 8 10 9 8 7 7 7 8 9 9 8 7 6 6 7 7 6 5 3 3 3 3 2 2 2 3 3 4 4 3 2 2 2 3 3 3 2 2 2 2
9 8 7 6 6 7 8 7 6 6 7 7 7 7 8 8 9 10 9 8 7 7 6 6 6 6 5 4 3 3 3 2 2 1 1 2 3 4 4 3 2 2 3 2 1 2 1 1 2
8 5 7 8 8 6 7 5 5 6 7 8 7 7 7 7 7 9 10 8 8 7 6 6 6 6 6 5 4 4 3 2 2 2 2 1 3 3 3 2 2 2 2 1 0 1 1 1 1
6 6 8 9 9 9 9 7 4 6 6 8 8 8 7 8 8 9 9 9 7 7 6 5 6 5 5 5 5 4 3 2 2 3 3 2 2 2 2 2 2 1 1 1 0 1 1 1 1
6 9 10 9 7 9 9 7 3 3 5 6 8 8 8 7 8 9 8 8 7 6 6 5 6 5 5 5 5 5 4 4 3 3 3 2 2 1 2 2 1 1 1 1 1 1 1 1 1
6 6 4 5 6 6 4 4 1 3 4 3 4 6 7 7 8 9 9 8 7 7 6 6 6 6 5 5 5 5 5 5 4 4 3 3 2 1 2 2 1 1 1 1 1 1 1 0 0
6 7 5 4 4 4 5 4 3 4 5 4 3 4 5 5 6 8 9 8 8 8 7 6 6 6 6 6 5 4 4 4 3 3 3 3 2 2 3 2 2 1 1 1 2 1 0 0 0
6 7 6 7 9 7 3 2 3 4 5 3 3 4 4 5 5 6 7 8 8 8 7 7 6 6 6 6 5 4 4 4 4 3 3 3 2 3 3 3 3 2 2 1 2 1 1 0 0
6 6 5 5 6 5 4 3 2 2 4 3 3 4 4 5 5 6 6 6 7 7 7 7 6 6 5 5 4 3 3 4 4 3 4 3 3 2 3 3 3 3 2 2 2 0 1 1 1
5 6 6 5 6 5 4 1 1 3 3 3 4 4 5 5 4 4 5 5 6 7 7 7 6 5 5 5 5 4 4 4 4 3 3 3 3 3 3 3 2 3 3 2 2 1 1 1 1
4 6 6 5 6 6 5 2 3 5 5 4 3 3 4 5 5 4 4 4 5 6 7 7 6 6 5 5 5 5 5 4 4 4 4 3 2 2 3 3 3 3 3 2 2 1 1 1 1
Wind_Direction
263 249 245 245 266 198 69 70 73 66 60 54 49 62 65 50 54 92 106 76 90 91 88 78 68 67 68 68 67 67 68 69 69 69 69 68 67 66 67 66 68 71 73 72 70 68 64 64 66
276 267 267 242 251 91 81 81 71 65 70 75 68 71 77 67 76 97 105 89 94 91 85 79 72 69 70 70 70 70 69 69 68 69 70 69 69 68 68 69 69 70 71 72 72 70 67 68 66
268 268 266 266 27 66 88 86 90 85 80 81 81 63 58 73 82 97 117 111 94 91 88 85 78 75 74 72 72 73 71 70 70 69 70 69 70 70 70 69 69 69 69 69 70 66 66 70 71
268 267 249 95 67 67 90 96 101 106 85 73 89 82 71 62 87 111 124 111 99 97 96 95 88 83 81 77 75 74 73 71 71 71 70 70 69 70 70 68 68 68 67 66 66 63 62 67 73
249 263 250 113 86 78 80 95 105 95 91 82 84 94 86 80 97 115 116 106 106 105 104 102 100 95 90 85 80 78 76 73 71 71 69 70 70 70 70 69 66 65 66 66 65 65 63 68 70
273 264 263 109 99 90 84 83 82 82 89 93 103 104 99 109 112 118 111 107 109 110 111 111 109 104 99 92 85 83 81 77 74 73 71 73 75 73 71 69 68 66 65 65 65 67 66 64 61
269 283 267 112 110 116 103 86 83 84 83 79 97 104 120 122 127 127 116 112 112 116 120 123 121 110 107 100 91 88 86 84 83 82 77 76 80 78 76 72 69 69 69 68 67 68 69 66 61
276 289 265 128 122 109 101 98 87 87 87 69 69 109 131 137 140 128 123 120 116 118 121 123 125 123 117 109 102 101 101 95 95 98 90 90 92 86 82 79 75 74 72 72 73 72 71 67 59
277 278 286 69 118 118 125 126 111 95 99 85 72 89 126 140 142 136 135 127 120 117 119 122 123 124 124 121 115 120 117 115 114 119 111 102 96 99 97 88 89 86 83 77 75 74 75 73 65
214 275 297 46 104 125 138 151 142 144 129 116 106 106 127 141 147 150 152 144 139 135 122 112 114 115 113 113 126 132 115 130 130 107 89 78 77 84 92 104 97 97 93 84 74 67 47 53 74
212 212 114 55 84 126 152 152 144 156 144 136 133 135 143 150 154 156 153 140 134 130 121 118 113 112 109 101 108 102 92 89 64 72 83 79 80 89 93 101 107 113 106 89 84 82 73 64 73
204 170 3 85 91 152 168 152 137 114 104 120 132 142 151 159 160 157 144 135 134 128 120 121 120 110 102 101 97 100 97 83 64 45 76 83 83 81 91 101 97 100 83 71 56 53 57 51 60
203 194 195 167 177 182 182 176 143 134 117 123 134 147 159 162 159 149 144 137 130 129 132 123 120 109 101 98 104 91 73 84 90 39 65 90 81 83 66 82 88 83 83 62 45 47 43 43 44
184 182 213 203 204 208 205 195 188 161 149 154 154 159 166 162 161 154 150 144 144 145 138 130 129 120 129 129 115 101 100 91 83 59 58 79 80 76 70 67 57 57 66 61 62 59 49 39 46
206 216 218 209 205 193 218 221 204 163 166 173 172 169 167 164 162 164 157 148 146 141 135 132 135 132 119 105 94 93 88 82 69 48 47 68 75 79 76 69 55 42 57 55 53 57 58 48 47
225 227 225 208 205 182 221 237 170 165 179 182 183 176 168 167 170 167 149 145 138 136 133 135 136 124 113 106 93 73 74 77 69 59 40 47 58 64 67 64 52 60 59 51 40 50 47 45 42
225 232 229 195 195 192 211 249 176 175 188 188 190 182 170 173 177 168 152 148 142 140 137 140 140 130 119 111 107 91 81 76 72 67 52 44 53 61 65 54 50 68 65 44 47 47 46 52 42
253 254 245 216 193 209 226 238 192 185 197 197 196 191 178 180 177 167 155 150 145 146 144 143 137 131 121 120 115 99 85 74 66 60 57 49 50 61 59 54 55 64 60 46 55 57 40 50 24
277 277 275 260 200 217 241 248 214 188 190 202 204 200 188 182 169 160 156 152 151 148 146 141 141 138 128 127 122 124 119 100 78 68 62 53 49 66 68 49 53 56 68 66 64 66 51 27 29
270 273 271 269 240 241 248 250 235 199 198 201 204 196 189 174 160 155 157 157 158 156 157 153 151 144 137 136 134 133 128 121 103 90 72 63 52 49 58 62 69 60 57 59 59 68 50 12 7
259 270 280 282 278 259 265 250 235 212 202 190 202 204 192 183 172 165 163 159 161 162 169 161 150 142 139 139 126 119 101 101 106 102 81 65 65 60 51 46 55 73 68 58 46 67 71 29 343
264 274 280 281 276 265 253 263 224 203 188 192 198 206 194 180 174 166 161 162 166 162 164 160 152 152 153 149 142 144 150 158 155 143 133 117 84 77 64 52 54 79 89 80 30 82 67 69 348
278 289 275 272 273 272 254 259 227 183 189 194 195 196 192 177 174 168 162 160 159 159 159 161 155 153 149 153 152 160 157 151 138 131 136 134 119 108 104 84 71 89 100 113 126 95 76 65 55
276 274 262 255 261 263 247 240 233 195 179 177 183 185 186 182 173 162 152 149 157 154 159 162 153 151 151 154 159 168 158 156 144 145 148 153 152 149 124 115 116 130 125 131 123 114 102 51 29
249 270 260 235 225 241 225 228 209 121 123 137 158 167 174 173 164 158 153 156 161 160 161 167 161 160 160 165 172 177 173 171 169 166 166 162 158 153 149 131 152 157 150 142 111 107 132 146 74
253 254 261 275 269 271 232 218 126 109 108 110 124 142 146 149 155 157 159 162 164 164 165 169 172 172 173 177 184 182 172 168 170 164 147 155 166 160 154 153 163 143 134 122 111 112 146 124 128
261 258 273 284 283 278 253 164 122 96 100 113 144 143 146 146 147 155 156 163 168 167 169 177 177 181 182 181 179 179 171 154 151 155 144 154 162 162 165 162 159 139 123 111 122 130 151 179 143
253 283 279 266 281 278 262 255 212 152 144 144 131 131 139 145 152 158 160 163 166 163 167 172 178 183 182 176 171 169 161 152 153 148 146 156 160 146 151 162 165 154 151 151 133 147 190 157 173
232 248 260 272 267 278 284 322 66 117 92 93 106 116 129 137 145 155 158 163 163 162 167 175 175 175 176 176 170 167 161 156 151 150 151 155 155 161 174 179 176 159 160 170 156 179 172 209 213
248 258 264 270 281 284 285 283 66 91 84 66 73 95 118 128 134 142 153 165 166 170 171 172 175 177 179 175 171 172 166 162 160 158 151 157 177 179 173 167 175 172 158 169 155 185 210 222 226
Height
1488 1488 1488 1490 1491 1493 1496 1492 1488 1490 1491 1493 1494 1494 1498 1502 1507 1518 1518 1516 1516 1515 1515 1514 1514 1513 1513 1513 1513 1514 1514 1514 1514 1514 1515 1515 1515 1515 1515 1516 1516 1516 1517 1517 1517 1518 1518 1518 1519
1488 1489 1490 1490 1492 1500 1500 1492 1493 1493 1494 1496 1496 1497 1501 1506 1510 1514 1516 1517 1517 1516 1516 1515 1515 1515 1515 1515 1515 1515 1515 1515 1515 1516 1516 1517 1517 1517 1517 1517 1518 1518 1518 1518 1519 1519 1519 1519 1520
1489 1490 1490 1488 1492 1498 1499 1493 1493 1494 1496 1496 1498 1501 1505 1510 1513 1515 1517 1518 1518 1517 1516 1516 1516 1516 1516 1516 1516 1516 1517 1517 1517 1518 1518 1518 1518 1519 1519 1519 1519 1519 1519 1519 1520 1520 1519 1519 1520
1491 1491 1489 1491 1495 1491 1491 1492 1493 1495 1496 1497 1499 1504 1509 1513 1514 1516 1517 1518 1518 1518 1518 1518 1518 1518 1518 1517 1517 1518 1518 1518 1519 1519 1519 1519 1520 1520 1520 1520 1520 1521 1521 1521 1521 1520 1519 1518 1520
1491 1491 1491 1494 1493 1490 1490 1492 1494 1495 1497 1498 1500 1506 1512 1515 1515 1517 1518 1519 1519 1519 1519 1519 1519 1519 1519 1519 1519 1519 1519 1520 1520 1520 1520 1521 1521 1521 1521 1521 1521 1522 1522 1522 1522 1521 1521 1520 1521
1492 1489 1495 1499 1495 1492 1491 1493 1494 1496 1498 1500 1502 1507 1514 1516 1517 1518 1519 1520 1520 1520 1520 1520 1520 1520 1520 1520 1520 1520 1521 1521 1521 1522 1522 1522 1522 1522 1523 1523 1523 1523 1523 1523 1523 1523 1523 1523 1523
1492 1491 1494 1494 1496 1495 1493 1495 1496 1498 1499 1501 1502 1507 1514 1516 1518 1519 1520 1521 1521 1522 1522 1522 1522 1522 1522 1522 1522 1522 1522 1522 1523 1523 1523 1523 1524 1524 1524 1524 1524 1524 1524 1524 1524 1524 1524 1524 1525
1491 1491 1492 1493 1496 1496 1494 1496 1498 1499 1501 1503 1504 1506 1512 1516 1518 1519 1521 1522 1522 1523 1523 1523 1523 1523 1523 1524 1524 1524 1524 1524 1524 1524 1525 1525 1525 1525 1525 1525 1525 1525 1525 1525 1525 1525 1525 1526 1526
1491 1494 1497 1493 1494 1495 1495 1497 1499 1501 1502 1504 1505 1507 1511 1515 1518 1520 1521 1522 1523 1524 1524 1525 1525 1525 1525 1525 1525 1525 1525 1525 1526 1526 1526 1526 1526 1526 1526 1526 1526 1526 1526 1526 1526 1526 1526 1527 1527
1490 1496 1494 1489 1490 1492 1495 1497 1498 1501 1502 1505 1507 1510 1513 1515 1517 1519 1521 1522 1523 1524 1525 1526 1526 1527 1527 1527 1526 1527 1527 1527 1527 1527 1528 1527 1527 1527 1527 1527 1527 1527 1527 1527 1527 1528 1528 1528 1528
1488 1492 1490 1489 1490 1493 1494 1496 1498 1500 1502 1504 1507 1510 1513 1515 1517 1519 1521 1522 1523 1525 1526 1526 1527 1527 1528 1528 1528 1528 1528 1528 1529 1529 1529 1529 1528 1528 1528 1528 1528 1528 1528 1528 1529 1529 1529 1529 1529
1489 1489 1490 1491 1492 1494 1495 1496 1498 1500 1502 1504 1506 1509 1512 1515 1517 1518 1520 1522 1523 1525 1526 1527 1527 1528 1528 1528 1529 1529 1529 1529 1529 1530 1530 1530 1529 1529 1529 1529 1529 1529 1529 1530 1530 1530 1530 1530 1530
1489 1490 1491 1492 1493 1494 1495 1496 1498 1500 1503 1505 1507 1509 1512 1514 1516 1518 1520 1522 1523 1525 1526 1527 1528 1528 1528 1529 1529 1529 1530 1530 1530 1530 1530 1530 1530 1530 1530 1530 1530 1530 1530 1530 1530 1530 1530 1530 1531
1489 1490 1491 1492 1493 1494 1495 1496 1498 1500 1502 1505 1507 1509 1511 1513 1515 1518 1519 1521 1523 1524 1525 1527 1528 1528 1529 1529 1529 1530 1530 1530 1531 1531 1531 1531 1531 1531 1530 1530 1531 1531 1531 1531 1531 1531 1531 1531 1531
1489 1491 1491 1491 1492 1493 1495 1496 1495 1498 1501 1503 1505 1508 1510 1512 1514 1517 1518 1520 1522 1523 1525 1526 1527 1528 1529 1529 1530 1530 1530 1531 1531 1531 1531 1531 1531 1531 1531 1531 1531 1531 1531 1531 1531 1531 1531 1531 1531
1488 1491 1495 1490 1489 1491 1497 1500 1494 1496 1499 1501 1503 1506 1508 1511 1513 1515 1517 1519 1521 1522 1524 1525 1527 1528 1528 1529 1529 1530 1530 1531 1531 1531 1531 1531 1531 1531 1531 1531 1531 1531 1531 1531 1531 1531 1531 1531 1531
1489 1494 1492 1490 1487 1488 1493 1496 1492 1494 1496 1499 1501 1503 1506 1509 1511 1513 1515 1518 1519 1521 1522 1524 1526 1527 1527 1528 1529 1529 1530 1530 1531 1531 1531 1531 1531 1531 1531 1531 1531 1531 1531 1531 1531 1531 1531 1531 1531
1492 1490 1488 1488 1485 1487 1490 1491 1490 1492 1494 1496 1498 1500 1503 1506 1509 1511 1514 1516 1518 1520 1521 1523 1524 1526 1527 1528 1528 1529 1530 1530 1530 1530 1530 1531 1531 1531 1531 1531 1531 1530 1530 1530 1530 1530 1531 1531 1531
1483 1485 1487 1485 1481 1485 1488 1488 1487 1488 1491 1493 1495 1498 1500 1503 1506 1509 1512 1514 1516 1518 1520 1522 1523 1524 1525 1526 1527 1528 1529 1529 1529 1530 1530 1530 1530 1530 1530 1530 1530 1530 1530 1530 1530 1530 1530 1530 1531
1483 1486 1486 1483 1480 1483 1485 1485 1482 1484 1487 1490 1492 1495 1498 1500 1504 1507 1509 1512 1514 1516 1518 1520 1522 1523 1524 1525 1526 1527 1528 1528 1529 1529 1529 1529 1529 1529 1529 1529 1529 1529 1529 1529 1530 1530 1530 1530 1530
1483 1485 1485 1486 1481 1480 1484 1487 1482 1481 1483 1486 1489 1492 1495 1497 1500 1504 1506 1509 1512 1514 1516 1518 1520 1521 1522 1524 1525 1526 1527 1527 1528 1528 1528 1528 1528 1529 1529 1528 1528 1528 1529 1529 1529 1529 1530 1530 1530
1485 1480 1481 1483 1488 1490 1485 1496 1484 1479 1481 1483 1487 1489 1492 1494 1497 1500 1503 1507 1509 1512 1514 1516 1518 1519 1521 1522 1523 1524 1525 1525 1526 1526 1527 1527 1527 1527 1528 1528 1527 1527 1528 1528 1528 1529 1529 1529 1529
1481 1478 1480 1482 1486 1489 1483 1490 1485 1477 1481 1481 1483 1486 1489 1492 1495 1498 1500 1504 1507 1509 1512 1514 1516 1517 1519 1520 1521 1522 1523 1524 1525 1525 1526 1526 1526 1526 1527 1527 1526 1527 1527 1527 1528 1528 1528 1528 1529
1478 1480 1479 1480 1486 1496 1482 1487 1488 1477 1476 1476 1479 1482 1485 1489 1492 1495 1498 1501 1504 1507 1509 1512 1514 1515 1516 1518 1519 1520 1521 1522 1523 1524 1524 1524 1525 1525 1525 1525 1525 1526 1526 1526 1527 1527 1527 1528 1528
1479 1488 1496 1498 1499 1493 1475 1481 1482 1472 1471 1473 1476 1479 1482 1485 1489 1492 1495 1498 1501 1504 1506 1509 1511 1512 1514 1516 1517 1518 1520 1520 1521 1522 1522 1523 1523 1524 1524 1524 1524 1524 1525 1525 1525 1526 1526 1527 1527
1478 1484 1498 1505 1499 1487 1474 1479 1477 1469 1470 1473 1476 1478 1481 1484 1487 1490 1493 1495 1498 1501 1503 1506 1508 1510 1512 1513 1515 1516 1517 1518 1519 1520 1521 1521 1522 1522 1522 1523 1523 1523 1523 1524 1524 1525 1525 1526 1526
1480 1481 1478 1487 1486 1488 1479 1474 1473 1469 1471 1474 1475 1477 1480 1483 1486 1489 1491 1493 1496 1498 1500 1502 1505 1507 1509 1511 1512 1514 1515 1516 1517 1518 1519 1520 1520 1521 1521 1521 1521 1521 1522 1522 1523 1523 1524 1524 1525
1476 1477 1482 1488 1495 1497 1485 1480 1481 1475 1473 1474 1474 1477 1479 1482 1485 1487 1489 1491 1494 1496 1498 1500 1502 1504 1507 1508 1510 1511 1513 1514 1515 1516 1517 1518 1518 1519 1519 1519 1520 1520 1520 1521 1521 1521 1522 1523 1523
1477 1479 1480 1482 1483 1493 1495 1491 1469 1471 1471 1473 1474 1477 1479 1481 1484 1486 1488 1490 1492 1493 1495 1497 1499 1502 1504 1505 1507 1509 1510 1511 1513 1514 1515 1516 1516 1517 1517 1517 1518 1518 1518 1519 1520 1520 1521 1521 1522
1471 1475 1479 1491 1489 1484 1490 1491 1469 1470 1472 1474 1475 1477 1478 1480 1482 1484 1486 1488 1490 1491 1493 1495 1497 1499 1501 1503 1505 1506 1508 1509 1511 1511 1512 1513 1514 1515 1515 1515 1516 1516 1517 1517 1518 1518 1519 1519 1520